Location: McFarlands Corners
(41.4117°N, 81.3382°W)
Time: 18:11:59
(UTC+00:00)

Vanguard 1 Rocket - Pass Details

Date: 20 February 2026
Orbit: 653 x 4214 km, 34.3° (Epoch: 8 March)

Event Time Altitude Azimuth Distance (km) Brightness Sun altitude
Rises 16:26:11 0° 204° (SSW) 3,511 10.9 35.2°
Reaches altitude 10° 16:28:49 10° 189° (S) 2,857 10.9 35.4°
Maximum altitude 16:34:17 24° 137° (SE) 2,606 11.3 35.8°
Drops below altitude 10° 16:42:44 10° 90° (E) 4,614 11.3 36.3°
Sets 16:48:32 0° 80° (E) 6,315 11.8 36.6°
